| time (UTC) | temp F | wind direction | speed MPH | gust MPH | rain 1hr in | rain 24hr in | rain mn in | humidity % | barometer mb |
| 20260507025019 | 60 | 295 | 3.0 | 11.0 | 0.00 | 0.00 | 0.00 | 75 | 1021.3 |
| 20260507024020 | 61 | 302 | 3.0 | 8.0 | 0.00 | 0.00 | 0.00 | 72 | 1021.3 |
| 20260507023025 | 62 | 304 | 3.0 | 8.0 | 0.00 | 0.00 | 0.00 | 71 | 1021.1 |
| 20260507022024 | 62 | 272 | 3.0 | 7.0 | 0.00 | 0.00 | 0.00 | 70 | 1021.2 |
| 20260507021015 | 63 | 265 | 3.0 | 7.0 | 0.00 | 0.00 | 0.00 | 68 | 1021.3 |
| 20260507020019 | 64 | 274 | 3.0 | 7.0 | 0.00 | 0.00 | 0.00 | 67 | 1021.3 |
| 20260507015018 | 64 | 217 | 2.0 | 7.0 | 0.00 | 0.00 | 0.00 | 66 | 1021.3 |
| 20260507014018 | 65 | 275 | 6.0 | 7.0 | 0.00 | 0.00 | 0.00 | 65 | 1021.2 |
| 20260507013025 | 65 | 0.0 | 0.0 | 0.00 | 0.00 | 0.00 | 65 | 1021.2 | |
| 20260507012019 | 65 | 329 | 13.0 | 15.0 | 0.00 | 0.00 | 0.00 | 66 | 1021.1 |
| 20260507011042 | 65 | 0.0 | 0.0 | 0.00 | 0.00 | 0.00 | 65 | 1021.1 | |
| 20260507010025 | 66 | 0.0 | 0.0 | 0.00 | 0.00 | 0.00 | 64 | 1021.1 | |
| 20260507005025 | 66 | 0.0 | 0.0 | 0.00 | 0.00 | 0.00 | 64 | 1021.0 | |
| 20260507004016 | 66 | 0.0 | 0.0 | 0.00 | 0.00 | 0.00 | 64 | 1021.0 | |
| 20260507003024 | 66 | 321 | 6.0 | 14.0 | 0.00 | 0.00 | 0.00 | 64 | 1020.8 |
| 20260507002017 | 67 | 316 | 6.0 | 13.0 | 0.00 | 0.00 | 0.00 | 63 | 1021.1 |
| 20260507001020 | 0 | 318 | 4.0 | 8.0 | 0.00 | 0.00 | 0.00 | 1021.1 | |
| 20260507000015 | 67 | 317 | 6.0 | 16.0 | 0.00 | 0.00 | 0.00 | 63 | 1021.0 |
| 20260506235018 | 67 | 309 | 5.0 | 11.0 | 0.00 | 0.00 | 0.00 | 62 | 1021.1 |
| 20260506234022 | 67 | 317 | 7.0 | 12.0 | 0.00 | 0.00 | 0.00 | 63 | 1021.0 |
| 20260506233016 | 67 | 315 | 6.0 | 14.0 | 0.00 | 0.00 | 0.00 | 62 | 1021.1 |
| 20260506232015 | 67 | 319 | 6.0 | 14.0 | 0.00 | 0.00 | 0.00 | 63 | 1021.2 |
| 20260506231018 | 67 | 311 | 6.0 | 14.0 | 0.00 | 0.00 | 0.00 | 63 | 1021.2 |
| 20260506230025 | 67 | 319 | 6.0 | 13.0 | 0.00 | 0.00 | 0.00 | 63 | 1021.3 |
| 20260506225020 | 68 | 293 | 5.0 | 13.0 | 0.00 | 0.00 | 0.00 | 62 | 1021.5 |
| 20260506224023 | 69 | 303 | 5.0 | 12.0 | 0.00 | 0.00 | 0.00 | 61 | 1021.5 |
| 20260506223020 | 69 | 311 | 6.0 | 12.0 | 0.00 | 0.00 | 0.00 | 60 | 1021.5 |
| 20260506222041 | 69 | 305 | 6.0 | 12.0 | 0.00 | 0.00 | 0.00 | 59 | 1021.7 |
| 20260506221018 | 70 | 310 | 6.0 | 12.0 | 0.00 | 0.00 | 0.00 | 59 | 1021.9 |
| 20260506220020 | 69 | 320 | 7.0 | 13.0 | 0.00 | 0.00 | 0.00 | 60 | 1022.0 |
| 20260506215021 | 69 | 321 | 6.0 | 13.0 | 0.00 | 0.00 | 0.00 | 61 | 1021.9 |
| 20260506214020 | 69 | 317 | 5.0 | 13.0 | 0.00 | 0.00 | 0.00 | 61 | 1022.0 |
| 20260506213017 | 70 | 319 | 5.0 | 13.0 | 0.00 | 0.00 | 0.00 | 59 | 1022.1 |
| 20260506212029 | 71 | 312 | 5.0 | 10.0 | 0.00 | 0.00 | 0.00 | 59 | 1022.0 |
| 20260506211019 | 70 | 326 | 6.0 | 13.0 | 0.00 | 0.00 | 0.00 | 59 | 1022.1 |
| 20260506210019 | 70 | 318 | 5.0 | 11.0 | 0.00 | 0.00 | 0.00 | 58 | 1022.3 |
| 20260506205017 | 70 | 322 | 6.0 | 10.0 | 0.00 | 0.00 | 0.00 | 58 | 1022.4 |
| 20260506204018 | 70 | 328 | 4.0 | 11.0 | 0.00 | 0.00 | 0.00 | 58 | 1022.3 |
| 20260506203019 | 70 | 333 | 4.0 | 9.0 | 0.00 | 0.00 | 0.00 | 57 | 1022.5 |
| 20260506202016 | 70 | 324 | 4.0 | 9.0 | 0.00 | 0.00 | 0.00 | 56 | 1022.5 |
| 20260506201017 | 70 | 352 | 4.0 | 12.0 | 0.00 | 0.00 | 0.00 | 57 | 1022.7 |
| 20260506200020 | 69 | 300 | 2.0 | 4.0 | 0.00 | 0.00 | 0.00 | 57 | 1022.8 |
| 20260506195041 | 70 | 332 | 4.0 | 9.0 | 0.00 | 0.00 | 0.00 | 58 | 1023.0 |
| 20260506194018 | 69 | 350 | 4.0 | 8.0 | 0.00 | 0.00 | 0.00 | 59 | 1023.0 |
| 20260506193019 | 68 | 354 | 5.0 | 10.0 | 0.00 | 0.00 | 0.00 | 60 | 1023.2 |
| 20260506192020 | 67 | 339 | 4.0 | 8.0 | 0.00 | 0.00 | 0.00 | 61 | 1023.5 |
| 20260506191017 | 67 | 350 | 5.0 | 9.0 | 0.00 | 0.00 | 0.00 | 63 | 1023.4 |
| 20260506190019 | 66 | 329 | 5.0 | 9.0 | 0.00 | 0.00 | 0.00 | 62 | 1023.3 |
| 20260506185019 | 67 | 351 | 4.0 | 9.0 | 0.00 | 0.00 | 0.00 | 61 | 1023.4 |
| 20260506184016 | 68 | 346 | 4.0 | 9.0 | 0.00 | 0.00 | 0.00 | 60 | 1023.4 |
| 20260506183017 | 68 | 360 | 5.0 | 10.0 | 0.00 | 0.00 | 0.00 | 61 | 1023.5 |
| 20260506182018 | 67 | 3 | 4.0 | 8.0 | 0.00 | 0.00 | 0.00 | 63 | 1023.4 |
| 20260506181017 | 67 | 347 | 3.0 | 6.0 | 0.00 | 0.00 | 0.00 | 62 | 1023.3 |
| 20260506180038 | 66 | 11 | 3.0 | 5.0 | 0.00 | 0.00 | 0.00 | 63 | 1023.5 |
| 20260506175019 | 66 | 335 | 3.0 | 6.0 | 0.00 | 0.00 | 0.00 | 64 | 1023.5 |
| 20260506174020 | 65 | 315 | 2.0 | 6.0 | 0.00 | 0.00 | 0.00 | 66 | 1023.4 |
| 20260506173017 | 64 | 307 | 2.0 | 6.0 | 0.00 | 0.00 | 0.00 | 67 | 1023.6 |
| 20260506172016 | 63 | 287 | 1.0 | 5.0 | 0.00 | 0.00 | 0.00 | 68 | 1023.6 |
| 20260506171036 | 62 | 342 | 2.0 | 4.0 | 0.00 | 0.00 | 0.00 | 68 | 1023.7 |
| 20260506170017 | 62 | 265 | 2.0 | 4.0 | 0.00 | 0.00 | 0.00 | 69 | 1023.8 |
| 20260506165037 | 62 | 344 | 1.0 | 4.0 | 0.00 | 0.00 | 0.00 | 70 | 1023.6 |
| 20260506164041 | 62 | 340 | 2.0 | 5.0 | 0.00 | 0.00 | 0.00 | 70 | 1023.7 |
| 20260506163016 | 61 | 353 | 2.0 | 7.0 | 0.00 | 0.00 | 0.00 | 70 | 1023.6 |
| 20260506162017 | 61 | 320 | 2.0 | 4.0 | 0.00 | 0.00 | 0.00 | 71 | 1023.7 |
| 20260506161020 | 60 | 320 | 2.0 | 4.0 | 0.00 | 0.00 | 0.00 | 72 | 1023.7 |
| 20260506160019 | 60 | 260 | 0.0 | 4.0 | 0.00 | 0.00 | 0.00 | 72 | 1023.7 |
| 20260506155017 | 59 | 266 | 3.0 | 5.0 | 0.00 | 0.00 | 0.00 | 73 | 1023.7 |
| 20260506154024 | 59 | 322 | 2.0 | 5.0 | 0.00 | 0.00 | 0.00 | 74 | 1023.6 |
| 20260506153022 | 59 | 348 | 1.0 | 2.0 | 0.00 | 0.00 | 0.00 | 75 | 1023.6 |
| 20260506152019 | 58 | 260 | 1.0 | 3.0 | 0.00 | 0.00 | 0.00 | 75 | 1023.7 |
| 20260506151018 | 58 | 272 | 0.0 | 2.0 | 0.00 | 0.00 | 0.00 | 77 | 1023.6 |
| 20260506150021 | 58 | 255 | 1.0 | 4.0 | 0.00 | 0.00 | 0.00 | 77 | 1023.7 |
| 20260506145020 | 58 | 289 | 2.0 | 5.0 | 0.00 | 0.00 | 0.00 | 77 | 1023.5 |
| 20260506144019 | 58 | 272 | 1.0 | 4.0 | 0.00 | 0.00 | 0.00 | 79 | 1023.5 |
| 20260506143041 | 57 | 281 | 2.0 | 4.0 | 0.00 | 0.00 | 0.00 | 79 | 1023.6 |
| 20260506142022 | 57 | 267 | 2.0 | 4.0 | 0.00 | 0.00 | 0.00 | 79 | 1023.5 |
| 20260506141041 | 57 | 268 | 1.0 | 3.0 | 0.00 | 0.00 | 0.00 | 79 | 1023.3 |
| 20260506140016 | 57 | 296 | 1.0 | 3.0 | 0.00 | 0.00 | 0.00 | 79 | 1023.1 |
| 20260506135017 | 57 | 294 | 1.0 | 4.0 | 0.00 | 0.00 | 0.00 | 80 | 1023.1 |
| 20260506134018 | 57 | 300 | 2.0 | 3.0 | 0.00 | 0.00 | 0.00 | 80 | 1023.0 |
| 20260506133026 | 57 | 323 | 1.0 | 3.0 | 0.00 | 0.00 | 0.00 | 81 | 1022.8 |
| 20260506132017 | 56 | 308 | 2.0 | 4.0 | 0.00 | 0.00 | 0.00 | 80 | 1022.8 |
| 20260506131018 | 56 | 266 | 0.0 | 3.0 | 0.00 | 0.00 | 0.00 | 81 | 1022.7 |
| 20260506130019 | 56 | 186 | 0.0 | 2.0 | 0.00 | 0.00 | 0.00 | 81 | 1022.8 |
| 20260506125017 | 56 | 14 | 0.0 | 2.0 | 0.00 | 0.00 | 0.00 | 81 | 1022.7 |
| 20260506124018 | 56 | 213 | 1.0 | 3.0 | 0.00 | 0.00 | 0.00 | 81 | 1022.6 |
| 20260506123037 | 56 | 203 | 1.0 | 2.0 | 0.00 | 0.00 | 0.00 | 81 | 1022.7 |
| 20260506122026 | 57 | 208 | 0.0 | 2.0 | 0.00 | 0.00 | 0.00 | 80 | 1022.4 |
| 20260506121024 | 57 | 280 | 0.0 | 2.0 | 0.00 | 0.00 | 0.00 | 80 | 1022.5 |
| 20260506120018 | 57 | 285 | 0.0 | 2.0 | 0.00 | 0.00 | 0.00 | 80 | 1022.5 |
| 20260506115016 | 57 | 285 | 0.0 | 2.0 | 0.00 | 0.00 | 0.00 | 80 | 1022.3 |
| 20260506114017 | 57 | 345 | 0.0 | 2.0 | 0.00 | 0.00 | 0.00 | 80 | 1022.3 |
| 20260506113024 | 57 | 315 | 1.0 | 3.0 | 0.00 | 0.00 | 0.00 | 80 | 1022.1 |
| 20260506112015 | 57 | 258 | 0.0 | 2.0 | 0.00 | 0.00 | 0.00 | 80 | 1022.1 |
| 20260506111017 | 57 | 279 | 0.0 | 2.0 | 0.00 | 0.00 | 0.00 | 81 | 1022.1 |
| 20260506110044 | 57 | 146 | 0.0 | 2.0 | 0.00 | 0.00 | 0.00 | 81 | 1022.1 |
| 20260506105021 | 57 | 264 | 0.0 | 1.0 | 0.00 | 0.00 | 0.00 | 80 | 1022.1 |
| 20260506104018 | 57 | 0.0 | 1.0 | 0.00 | 0.00 | 0.00 | 80 | 1022.1 | |
| 20260506103017 | 57 | 229 | 0.0 | 2.0 | 0.00 | 0.00 | 0.00 | 80 | 1022.0 |
| 20260506102018 | 57 | 166 | 0.0 | 2.0 | 0.00 | 0.00 | 0.00 | 79 | 1021.8 |
| 20260506101015 | 57 | 255 | 0.0 | 2.0 | 0.00 | 0.00 | 0.00 | 79 | 1022.0 |
| 20260506100018 | 57 | 295 | 0.0 | 2.0 | 0.00 | 0.00 | 0.00 | 79 | 1021.9 |
| 20260506095029 | 57 | 238 | 0.0 | 1.0 | 0.00 | 0.01 | 0.00 | 79 | 1021.9 |
| 20260506094026 | 57 | 160 | 0.0 | 2.0 | 0.00 | 0.01 | 0.00 | 79 | 1021.9 |
| 20260506093019 | 57 | 311 | 0.0 | 2.0 | 0.00 | 0.01 | 0.00 | 79 | 1022.0 |
| 20260506092020 | 57 | 0.0 | 0.0 | 0.00 | 0.01 | 0.00 | 80 | 1021.9 | |
| 20260506091017 | 57 | 0.0 | 0.0 | 0.00 | 0.01 | 0.00 | 79 | 1021.8 | |
| 20260506090019 | 57 | 316 | 0.0 | 1.0 | 0.00 | 0.01 | 0.00 | 79 | 1021.8 |
| 20260506085019 | 57 | 0.0 | 0.0 | 0.00 | 0.03 | 0.00 | 79 | 1021.8 | |
| 20260506084017 | 58 | 245 | 0.0 | 1.0 | 0.00 | 0.04 | 0.00 | 78 | 1021.8 |
| 20260506083020 | 58 | 340 | 0.0 | 1.0 | 0.00 | 0.04 | 0.00 | 77 | 1022.0 |
| 20260506082017 | 58 | 252 | 0.0 | 2.0 | 0.00 | 0.04 | 0.00 | 77 | 1021.9 |
| 20260506081020 | 58 | 302 | 0.0 | 2.0 | 0.00 | 0.04 | 0.00 | 77 | 1022.0 |
| 20260506073057 | 58 | 195 | 0.0 | 2.0 | 0.00 | 0.05 | 0.00 | 78 | 1021.7 |
| 20260506072019 | 57 | 214 | 1.0 | 2.0 | 0.00 | 0.06 | 0.00 | 78 | 1021.6 |
| 20260506071023 | 57 | 0.0 | 2.0 | 0.00 | 0.06 | 0.00 | 79 | 1021.6 | |
| 20260506062018 | 57 | 0.0 | 0.0 | 0.00 | 0.06 | 0.06 | 80 | 1021.4 | |
| 20260506061039 | 57 | 0.0 | 0.0 | 0.00 | 0.06 | 0.06 | 79 | 1021.2 | |
| 20260506051018 | 58 | 88 | 0.0 | 2.0 | 0.00 | 0.06 | 0.06 | 76 | 1020.8 |
| 20260506045019 | 58 | 205 | 1.0 | 3.0 | 0.00 | 0.06 | 0.06 | 76 | 1020.7 |
| 20260506044019 | 58 | 255 | 1.0 | 4.0 | 0.00 | 0.06 | 0.06 | 76 | 1020.6 |
| 20260506043017 | 58 | 248 | 1.0 | 4.0 | 0.00 | 0.06 | 0.06 | 75 | 1020.5 |
| 20260506042027 | 58 | 244 | 1.0 | 4.0 | 0.00 | 0.06 | 0.06 | 75 | 1020.5 |
| 20260506041018 | 58 | 173 | 0.0 | 2.0 | 0.00 | 0.06 | 0.06 | 75 | 1020.2 |
| 20260506040021 | 58 | 213 | 1.0 | 4.0 | 0.00 | 0.06 | 0.06 | 75 | 1020.1 |
| 20260506035016 | 59 | 206 | 1.0 | 3.0 | 0.00 | 0.06 | 0.06 | 74 | 1020.0 |
| 20260506034019 | 59 | 191 | 1.0 | 3.0 | 0.00 | 0.06 | 0.06 | 74 | 1019.9 |
| 20260506033020 | 59 | 210 | 1.0 | 3.0 | 0.00 | 0.06 | 0.06 | 73 | 1019.8 |
| 20260506032017 | 0 | 191 | 1.0 | 4.0 | 0.00 | 0.06 | 0.06 | 1019.6 | |
| 20260506031018 | 60 | 203 | 1.0 | 3.0 | 0.00 | 0.06 | 0.06 | 73 | 1019.5 |